This is the latest recevied weather packets stored in our database for station/object DL9TPA-1. If no packets are shown the sender has not sent any weather packets the latest 10 day(s).
| Time | Temp. | Humidity | Pressure | Rain* | Wind** | Luminosity | Snow |
|---|---|---|---|---|---|---|---|
| 1777732188 | 30° C | 28% | 1018.2 hPa | 0 mm | - | - | - |
| 1777731584 | 30° C | 27% | 1018.3 hPa | 0 mm | - | - | - |
| 1777730985 | 30.56° C | 27% | 1018.5 hPa | 0 mm | - | - | - |
| 1777730381 | 30.56° C | 27% | 1018.6 hPa | 0 mm | - | - | - |
| 1777729780 | 31.67° C | 26% | 1018.6 hPa | 0 mm | - | - | - |
| 1777729176 | 32.22° C | 26% | 1018.8 hPa | 0 mm | - | - | - |
| 1777728574 | 31.67° C | 27% | 1019 hPa | 0 mm | - | - | - |
| 1777727973 | 31.11° C | 27% | 1019.1 hPa | 0 mm | - | - | - |
| 1777727372 | 31.67° C | 27% | 1019.3 hPa | 0 mm | - | - | - |
| 1777726769 | 32.22° C | 27% | 1019.5 hPa | 0 mm | - | - | - |
| 1777726167 | 32.22° C | 29% | 1019.6 hPa | 0 mm | - | - | - |
| 1777725566 | 32.22° C | 28% | 1019.7 hPa | 0 mm | - | - | - |
| 1777724965 | 31.67° C | 30% | 1019.8 hPa | 0 mm | - | - | - |
| 1777724362 | 31.11° C | 31% | 1020.1 hPa | 0 mm | - | - | - |
| 1777723759 | 30° C | 31% | 1020.3 hPa | 0 mm | - | - | - |
| 1777723167 | 29.44° C | 31% | 1020.4 hPa | 0 mm | - | - | - |
| 1777722555 | 28.89° C | 31% | 1020.5 hPa | 0 mm | - | - | - |
| 1777721953 | 28.89° C | 31% | 1020.6 hPa | 0 mm | - | - | - |
| 1777721351 | 28.89° C | 31% | 1020.8 hPa | 0 mm | - | - | - |
| 1777720749 | 28.33° C | 33% | 1020.9 hPa | 0 mm | - | - | - |
| 1777720148 | 27.78° C | 32% | 1021.1 hPa | 0 mm | - | - | - |
| 1777719544 | 28.33° C | 31% | 1021.1 hPa | 0 mm | - | - | - |
| 1777718945 | 28.33° C | 31% | 1021.2 hPa | 0 mm | - | - | - |
| 1777718343 | 28.33° C | 31% | 1021.3 hPa | 0 mm | - | - | - |
| 1777717741 | 28.33° C | 31% | 1021.4 hPa | 0 mm | - | - | - |
* Rain latest hour (hover to see other rain measurements)
** Current wind speed in m/s (hover to see current wind gust speed)